Regional Weather Roundup
Issued by NWS

Home | Current Version | Previous Version | Graphics & Text | Print | Product List | Glossary On
Versions: 1 2 3 4 5 6 7 8 9 10 11 12 13 14 15 16 17 18 19 20 21 22 23 24 25 26 27 28 29 30 31 32 33 34 35 36 37 38 39 40 41 42 43 44 45 46 47 48 49 50
505
ASUS45 KBOU 260107
RWRCO

WEATHER ROUNDUP FOR COLORADO
NATIONAL WEATHER SERVICE DENVER/BOULDER CO
700 PM MDT MON JUL 25 2016

NOTE: "FAIR" INDICATES FEW OR NO CLOUDS BELOW 12000 FEET WITH NO
SIGNIFICANT WEATHER AND/OR OBSTRUCTIONS TO VISIBILITY.

COZ001>005-013-030-031-260200-
...NORTHWEST COLORADO...

CITY           SKY/WX    TMP DP  RH WIND       PRES   REMARKS
CRAIG          FAIR      85  33  15 W9        30.20R
HAYDEN         FAIR      81  37  21 SW9       30.23S
MEEKER         FAIR      83  42  23 E5        30.22S
MOUNT WERNER   NOT AVBL
STEAMBOAT SPGS FAIR      84  35  16 SW3       30.25F
WALDEN         FAIR      79  23  12 W9        30.36F
$$

COZ006>008-011-260200-
...WEST CENTRAL VALLEYS...

CITY           SKY/WX    TMP DP  RH WIND       PRES   REMARKS
GRAND JUNCTION FAIR      94  29  10 S6        30.05F
MONTROSE       FAIR      84  39  20 S12       30.19F
EAGLE          SUNNY     86  32  14 CALM      30.24F
RIFLE          FAIR      92  29  10 CALM      30.11F
DELTA          FAIR      92  38  15 E14       30.14S
NUCLA          CLOUDY   N/A N/A N/A SW6       30.25R
$$

COZ017>023-064>068-260200-
...SOUTHWEST COLORADO...

CITY           SKY/WX    TMP DP  RH WIND       PRES   REMARKS
DURANGO        CLOUDY    76  47  35 MISG      30.29R
CORTEZ         FAIR      89  44  20 E10       30.15S
PAGOSA SPRINGS FAIR      78  39  24 SW12      30.35R
TELLURIDE      CLOUDY    68  46  45 CALM      30.50S
WOLF CREEK PAS CLOUDY    55  32  41 E8        30.73S
$$

COZ009-010-012-014-032>034-037-058>063-260200-
...CENTRAL COLORADO...

CITY           SKY/WX    TMP DP  RH WIND       PRES   REMARKS
ASPEN          PTSUNNY   77  38  24 SE8       30.34S
BUENA VISTA    FAIR      76  31  19 W8G18     30.37S
COPPER MTN     FAIR      64  23  20 NW12G20   30.73S
BERTHOUD PASS  FAIR      54  41  62 N8        30.75R THUNDER
COTTONWOOD PAS FAIR      70  23  17 W13G18    30.54S
GUNNISON       FAIR      70  46  43 CALM      30.40F
KREMMLING      FAIR      82  28  14 W7        30.31S
LEADVILLE      FAIR      68  32  26 N6        30.53S
MONARCH PASS   CLOUDY    59  28  31 MISG      30.82F
SALIDA         FAIR      80  34  18 W3        30.40S
SUNLIGHT       PTSUNNY   68  32  26 CALM      30.64S
WILKERSON PASS FAIR      63  27  25 SW6       30.67F
$$

COZ069>075-260200-
...SAN LUIS VALLEY/SANGRE DE CRISTO MOUNTAINS...

CITY           SKY/WX    TMP DP  RH WIND       PRES   REMARKS
ALAMOSA        FAIR      75  46  35 S12G23    30.31S
LA VETA PASS   PTSUNNY   64  36  34 NE5       30.56S
SAGUACHE       FAIR      77  34  20 N12       30.37S
$$

COZ035-036-038>040-260200-
...NORTHERN COLORADO FRONT RANGE...

CITY           SKY/WX    TMP DP  RH WIND       PRES   REMARKS
DENVER INTL AP FAIR      85  45  24 S22G33    30.12R
DMNS CITY PARK   N/A     84  44  24 SE10G24   30.12R
AURORA         MOSUNNY   80  46  30 S25G31    30.15R
FRONT RANGE AP PTSUNNY   86  41  20 MISG      30.15R
ERIE MUNI ARPT FAIR      88  52  29 CALM      30.09F
BOULDER MUN AP FAIR      88  54  31 SW5       30.10F
CENTENNIAL     FAIR      81  44  27 SE22G35   30.18R
BROOMFIELD     PTSUNNY   84  54  34 NW5       30.15S
LONGMONT       FAIR      90  52  27 CALM      30.10S
$$

COZ041-046-047-076>085-087-088-260200-
...PIKES PEAK/PALMER DIVIDE AND SOUTHERN FOOTHILLS...

CITY           SKY/WX    TMP DP  RH WIND       PRES   REMARKS
COLO. SPRINGS  PTSUNNY   71  50  47 SW8       30.28R
A. F. ACADEMY  CLOUDY    71  49  46 S10       30.29S
SCHRIEVER AFB  NOT AVBL
ELLICOTT       FAIR     N/A N/A N/A S14G24    30.24S THUNDER
FALCON         NOT AVBL
FORT CARSON    CLOUDY    70  53  54 W10       30.23F
LIMON          NOT AVBL
MONUMENT HILL  FAIR      72  46  40 S20       30.31S
TRINIDAD       NOT AVBL
$$

COZ042>045-048>051-090-091-260200-
...NORTHEAST COLORADO...

CITY           SKY/WX    TMP DP  RH WIND       PRES   REMARKS
GREELEY ARPT   FAIR      90  54  29 SE12      30.07S
AKRON          FAIR      80  61  52 SE22G31   30.12R
BURLINGTON     FAIR      77  62  59 SE12      30.15R
WRAY           FAIR      81  61  50 S10G16    30.10R
STERLING       FAIR      82  64  54 S13G21    30.06S
HOLYOKE        FAIR     N/A N/A N/A W9        30.10S
FORT MORGAN    FAIR      83  58  41 SE13G21   30.09S
$$

COZ086-089-092>099-260200-
...SOUTHEAST COLORADO...

CITY           SKY/WX    TMP DP  RH WIND       PRES   REMARKS
PUEBLO         TSTM      74  54  49 NE30G47   30.13F
LA JUNTA       FAIR      86  61  42 SE22      30.09R
LAMAR          FAIR      83  63  50 SE15      30.09R
SPRINGFIELD      N/A     80  63  55 SE15      30.14F
$$




USA.gov is the U.S. government's official web portal to all federal, state and local government web resources and services.